DATE/TIME(UTC),Outside Humidity (),Outside Temperature (),Lat. , Long.,Direction / Angle (),Direction / Angle (),Speed (ground - true North),Speed (Apparent),Barometric Pressure ()
Jul-11-2019 00:00:00,83.9,19.01,32.69576,-117.1523133,355.3885316,140.059533,5.792656587,2.779697624,1011
Jul-11-2019 00:00:15,83.98,19.03,32.6957616,-117.1523066,3.99924541,139.8188907,4.898488121,1.516198704,1011
Jul-11-2019 00:00:30,84.14,19.07,32.6957716,-117.1522966,351.3892862,122.4697287,4.781857451,4.082073434,1011
Jul-11-2019 00:00:45,84.22,19.15,32.69577,-117.15229,353.3889089,138.0656399,3.98488121,3.265658747,1011
Jul-11-2019 00:01:00,84.54,19.28,32.6957583,-117.152295,354.4889878,122.0629287,4.995680346,3.518358531,1011
Jul-11-2019 00:01:15,84.704,19.24,32.6957683,-117.1522816,4.199780638,152.7104411,5.889848812,4.354211663,1011
Jul-11-2019 00:01:30,84.784,19.09,32.6957666,-117.1522833,10.19864875,139.9162936,4.781857451,3.071274298,1011
Jul-11-2019 00:01:45,84.864,19.14,32.6957716,-117.1522733,3.896113007,139.9907781,4.295896328,2.954643629,1011
Jul-11-2019 00:02:00,84.864,19.19,32.6957633,-117.152275,16.59858732,139.9334823,3.498920086,1.846652268,1011
Jul-11-2019 00:02:15,84.864,19.16,32.6957616,-117.152275,9.894981122,166.8109325,3.98488121,1.827213823,1011
Jul-11-2019 00:02:30,84.944,19.22,32.6957683,-117.1522733,6.497341397,141.9617529,4.198704104,2.196544276,1011
Jul-11-2019 00:02:45,85.104,19.27,32.69578,-117.15228,7.49428796,155.6325259,6.084233261,2.876889849,1011
Jul-11-2019 00:03:00,85.184,19.1,32.6957833,-117.1522883,14.89690267,140.1626654,4.393088553,3.518358531,1011
Jul-11-2019 00:03:15,85.104,19.05,32.6957916,-117.1522866,7.895358417,139.3318766,5.287257019,3.557235421,1011
Jul-11-2019 00:03:30,85.104,19.1,32.695785,-117.1522816,11.29872772,139.583978,4.490280778,2.993520518,1011
Jul-11-2019 00:03:45,85.104,19.16,32.695775,-117.1522833,0.69900851,147.0152407,5.481641469,4.704103672,1011
Jul-11-2019 00:04:00,85.024,19.12,32.6957683,-117.152275,9.195972612,142.1164515,5.287257019,3.809935205,1011
Jul-11-2019 00:04:15,85.024,19.13,32.6957633,-117.1522666,6.09627094,139.8360795,4.781857451,2.546436285,1011
Jul-11-2019 00:04:30,84.944,19.13,32.695755,-117.1522616,11.19559532,149.9774325,5.384449244,2.993520518,1011
Jul-11-2019 00:04:45,84.944,19.07,32.695755,-117.1522666,8.496964102,136.1290425,5.384449244,4.315334773,1011
Jul-11-2019 00:05:00,84.944,19.08,32.6957516,-117.152275,4.595121517,151.6905763,6.181425486,3.149028078,1011
Jul-11-2019 00:05:15,84.944,19.08,32.695735,-117.152285,2.698631215,134.5763269,5.384449244,3.693304536,1011
Jul-11-2019 00:05:30,84.944,19.1,32.6957433,-117.152285,4.595121517,139.9449415,6.181425486,4.043196544,1011
Jul-11-2019 00:05:45,84.864,19.11,32.6957533,-117.1522916,2.394963584,136.2149862,6.784017279,4.840172786,1011
Jul-11-2019 00:06:00,84.864,19.13,32.6957633,-117.1522733,13.69942088,146.4079054,3.98488121,1.457883369,1011
Jul-11-2019 00:06:15,85.024,19.12,32.6957616,-117.1522616,9.797578297,134.1351494,4.198704104,2.799136069,1011
Jul-11-2019 00:06:30,85.024,19.12,32.6957733,-117.15228,0.899543738,141.1366937,4.393088553,2.935205184,1011
Jul-11-2019 00:06:45,85.104,19.12,32.6957816,-117.1522966,356.6891458,118.3730805,3.693304536,3.012958963,1011
Jul-11-2019 00:07:00,85.184,19.22,32.6957466,-117.1523333,351.9908919,132.8574535,3.382289417,2.352051836,1011
Jul-11-2019 00:07:15,85.264,19.29,32.6957516,-117.15234,347.9916465,81.22249704,2.390928726,1.30237581,1011
Jul-11-2019 00:07:30,85.344,19.36,32.695755,-117.15232,352.993568,111.9616827,3.090712743,3.479481641,1011
Jul-11-2019 00:07:45,85.424,19.29,32.6957616,-117.152295,342.9897249,125.2772219,2.799136069,3.110151188,1011
Jul-11-2019 00:08:00,85.508,19.24,32.6957733,-117.1522966,327.7891546,114.9238745,2.896328294,3.479481641,1011
Jul-11-2019 00:08:15,85.424,19.18,32.6957766,-117.15229,327.1932785,93.64995161,3.285097192,4.295896328,1011
Jul-11-2019 00:08:30,85.508,19.01,32.6957966,-117.1522933,339.2941471,95.98188984,3.285097192,3.440604752,1011
Jul-11-2019 00:08:45,85.424,18.96,32.6958083,-117.1523016,321.4923484,84.51127478,2.48812095,2.410367171,1011
Jul-11-2019 00:09:00,85.264,18.96,32.6957983,-117.15231,316.1924888,72.59948222,2.799136069,4.295896328,1011
Jul-11-2019 00:09:15,85.184,18.98,32.69579,-117.1523216,332.4931381,75.26946555,3.596112311,2.099352052,1011
Jul-11-2019 00:09:30,85.104,19.06,32.6957866,-117.1523216,331.490462,107.2634288,5.695464363,6.064794816,1011
Jul-11-2019 00:09:45,84.864,18.98,32.695785,-117.1523183,319.3895933,103.4131524,4.198704104,5.151187905,1011
Jul-11-2019 00:10:00,84.944,19.02,32.6957866,-117.1523083,331.0893915,96.70954624,3.98488121,3.712742981,1011
Jul-11-2019 00:10:15,85.104,19.01,32.695785,-117.1522966,327.6917518,92.5613318,5.287257019,6.006479482,1011
Jul-11-2019 00:10:30,85.024,18.96,32.695785,-117.1522866,330.2929802,76.27214169,4.587473002,2.954643629,1011
Jul-11-2019 00:10:45,85.184,19.06,32.6957866,-117.1522866,345.3904181,138.8906991,4.082073434,3.460043197,1011
Jul-11-2019 00:11:00,85.264,19.1,32.6957866,-117.1522866,355.491664,139.9793189,3.79049676,1.652267819,1011
Jul-11-2019 00:11:15,85.264,19.17,32.69578,-117.1522866,341.8896459,116.0697901,2.896328294,3.362850972,1011
Jul-11-2019 00:11:30,85.344,19.2,32.6957733,-117.1522866,333.1921466,136.5014651,3.187904968,1.30237581,1011
Jul-11-2019 00:11:45,85.508,19.22,32.695775,-117.152285,332.9916114,117.6511537,2.896328294,3.051835853,1011
Jul-11-2019 00:12:00,85.508,19.28,32.6957783,-117.1522833,327.892287,107.0628936,2.993520518,2.390928726,1011
Jul-11-2019 00:12:15,85.668,19.22,32.6957766,-117.15229,323.6925064,81.23968577,3.498920086,3.304535637,1011
Jul-11-2019 00:12:30,85.584,19.08,32.6957833,-117.1522933,333.6906199,93.50098259,3.090712743,3.071274298,1011
Jul-11-2019 00:12:45,85.508,18.99,32.695785,-117.152305,324.6894529,99.28212674,2.585313175,3.090712743,1011
Jul-11-2019 00:13:00,85.508,19.04,32.6957883,-117.1523066,348.988593,112.1908659,2.293736501,2.157667387,1011
Jul-11-2019 00:13:15,85.424,19.07,32.69579,-117.1523,345.9920237,110.0078967,2.196544276,2.64362851,1011
Jul-11-2019 00:13:30,85.424,19.12,32.695795,-117.15229,340.1936909,111.8299025,2.196544276,2.371490281,1011
Jul-11-2019 00:13:45,85.344,19.17,32.69579,-117.1522866,358.7919009,140.0538034,3.98488121,3.207343413,1011
Jul-11-2019 00:14:00,85.264,19.12,32.6957866,-117.1522883,353.1883737,128.4170306,4.490280778,4.101511879,1011
Jul-11-2019 00:14:15,85.184,19.14,32.6957816,-117.1522933,1.896490302,140.2027725,4.995680346,3.226781857,1011
Jul-11-2019 00:14:30,85.184,19.18,32.69577,-117.152295,2.394963584,139.801702,4.587473002,2.352051836,1011
Jul-11-2019 00:14:45,85.184,19.22,32.695775,-117.1522866,13.39575325,148.6997366,4.198704104,2.371490281,1011
Jul-11-2019 00:15:00,85.344,19.2,32.6957766,-117.1522866,16.29491969,148.0064576,3.596112311,3.071274298,1011
Jul-11-2019 00:15:15,85.424,19.11,32.6957833,-117.1522866,356.6891458,139.9793189,4.393088553,2.021598272,1011
Jul-11-2019 00:15:30,85.264,19.14,32.69578,-117.1522833,357.5886895,139.761595,4.587473002,1.146868251,1011
Jul-11-2019 00:15:45,85.264,19.22,32.6957766,-117.1522783,352.0940243,117.5365621,4.082073434,3.90712743,1011
Jul-11-2019 00:16:00,85.344,19.34,32.69577,-117.152275,337.3919272,93.82756853,3.187904968,4.023758099,1011
Jul-11-2019 00:16:15,85.584,19.42,32.6957583,-117.152285,341.8896459,117.8058523,2.896328294,3.479481641,1011
Jul-11-2019 00:16:30,85.668,19.27,32.69575,-117.1522933,338.1940682,115.2791084,3.285097192,3.304535637,1011
Jul-11-2019 00:16:45,85.584,19.16,32.69574,-117.1523066,348.5932521,129.4999209,2.6825054,3.304535637,1011
Jul-11-2019 00:17:00,85.584,19.15,32.6957433,-117.152305,351.893489,153.9251117,2.799136069,1.982721382,1011
Jul-11-2019 00:17:15,85.424,19.1,32.6957616,-117.152295,354.4889878,139.6412738,2.48812095,1.205183585,1011
Jul-11-2019 00:17:30,85.424,19.16,32.6957716,-117.1522766,329.5939716,113.2336491,1.982721382,2.118790497,1011
Jul-11-2019 00:17:45,85.424,19.2,32.6957683,-117.15226,353.2915061,120.3898919,2.390928726,2.6825054,1011
Jul-11-2019 00:18:00,85.424,19.18,32.6957666,-117.1522483,354.8900583,121.9025005,3.285097192,1.846652268,1011
Jul-11-2019 00:18:15,85.424,19.07,32.6957633,-117.15224,351.5898214,122.7447485,2.48812095,3.090712743,1011
Jul-11-2019 00:18:30,85.424,19.03,32.6957583,-117.1522466,350.1918044,109.7443361,2.48812095,2.546436285,1011
Jul-11-2019 00:18:45,85.264,19.05,32.69576,-117.1522566,358.3908304,120.4643764,3.498920086,2.332613391,1011
Jul-11-2019 00:19:00,85.264,19.05,32.6957616,-117.1522683,357.8923572,127.6091601,2.196544276,2.157667387,1011
Jul-11-2019 00:19:15,85.264,19.16,32.6957516,-117.15227,1.598552248,139.7444062,3.285097192,1.321814255,1011
Jul-11-2019 00:19:30,85.184,19.28,32.695745,-117.15228,355.0905935,142.2253135,4.781857451,4.004319654,1011
Jul-11-2019 00:19:45,85.184,19.28,32.695765,-117.152265,348.8911902,125.7699656,2.993520518,2.352051836,1011
Jul-11-2019 00:20:00,85.264,19.24,32.695735,-117.1522883,353.0909708,126.0392558,3.596112311,4.257019438,1011
Jul-11-2019 00:20:15,85.104,19.14,32.6957366,-117.1523033,340.5890317,122.6473456,2.585313175,2.48812095,1011
Jul-11-2019 00:20:30,85.024,19.12,32.6957433,-117.1522916,340.2910937,108.9880318,2.48812095,2.954643629,1011
Jul-11-2019 00:20:45,84.944,19.04,32.69575,-117.152285,330.5909182,91.36385001,3.187904968,3.596112311,1011
Jul-11-2019 00:21:00,84.944,19.01,32.695755,-117.1522833,322.2944893,89.45017098,2.585313175,3.265658747,1011
Jul-11-2019 00:21:15,85.024,18.98,32.6957583,-117.1522883,324.1909796,93.02542762,2.585313175,3.576673866,1011
Jul-11-2019 00:21:30,85.024,19,32.69576,-117.1522966,324.6894529,96.09075182,2.585313175,3.304535637,1011
Jul-11-2019 00:21:45,85.024,19.11,32.6957666,-117.1523033,339.7926204,135.0289636,2.799136069,2.371490281,1011
Jul-11-2019 00:22:00,85.024,19.22,32.6957783,-117.1523016,344.3934715,95.55790107,1.982721382,2.196544276,1011
Jul-11-2019 00:22:15,85.104,19.16,32.6957866,-117.152295,338.291471,72.63958927,1.593952484,1.846652268,1011
Jul-11-2019 00:22:30,85.104,19.1,32.69579,-117.15229,353.4920413,105.3325611,1.399568035,2.663066955,1011
Jul-11-2019 00:22:45,85.104,19.13,32.69579,-117.15229,351.5898214,104.6507413,2.390928726,2.663066955,1011
Jul-11-2019 00:23:00,85.104,19.13,32.6957833,-117.1522883,336.9908568,112.9872772,2.390928726,2.915766739,1011
Jul-11-2019 00:23:15,85.104,19.15,32.6957783,-117.152285,340.3942261,103.8715187,2.585313175,2.56587473,1011
Jul-11-2019 00:23:30,85.024,19.19,32.6957783,-117.1522833,0,131.9808281,2.196544276,2.002159827,1011
Jul-11-2019 00:23:45,85.104,19.28,32.69578,-117.1522816,356.6891458,96.07356309,2.293736501,2.799136069,1011
Jul-11-2019 00:24:00,85.104,19.37,32.6957783,-117.152285,349.7907339,111.7210405,2.6825054,1.924406048,1011
Jul-11-2019 00:24:15,85.184,19.42,32.695775,-117.1522866,349.0917254,120.6534525,1.982721382,2.215982721,1011
Jul-11-2019 00:24:30,85.264,19.42,32.6957933,-117.1522983,352.3919623,122.6301569,2.799136069,2.215982721,1011
Jul-11-2019 00:24:45,85.264,19.45,32.695785,-117.1522966,2.09702553,141.4117134,3.498920086,1.807775378,1011
Jul-11-2019 00:25:00,85.344,19.41,32.6957933,-117.152305,16.89652538,135.4930594,2.896328294,2.390928726,1011
Jul-11-2019 00:25:15,85.344,19.26,32.6957816,-117.1523033,346.0894266,104.7939807,2.390928726,3.673866091,1011
Jul-11-2019 00:25:30,85.344,19.26,32.6957766,-117.1522983,4.595121517,144.1218038,3.090712743,1.963282937,1011
Jul-11-2019 00:25:45,85.264,19.34,32.69578,-117.1522983,2.698631215,133.9632621,3.693304536,1.691144708,1011
Jul-11-2019 00:26:00,85.184,19.26,32.6957766,-117.1522966,8.69749933,142.0133191,3.98488121,3.285097192,1011
Jul-11-2019 00:26:15,85.104,19.24,32.6957783,-117.1522916,359.5883122,139.69284,2.993520518,1.107991361,1011
Jul-11-2019 00:26:30,85.024,19.19,32.6957883,-117.1522833,351.0913481,138.145854,2.6825054,3.110151188,1011
Jul-11-2019 00:26:45,84.864,19.33,32.6957883,-117.15228,0.19480565,122.5327541,4.781857451,3.032397408,1011
Jul-11-2019 00:27:00,84.944,19.47,32.6957883,-117.1522816,348.8911902,91.4956303,2.896328294,1.904967603,1011
Jul-11-2019 00:27:15,85.104,19.3,32.6957833,-117.1522866,6.594744222,134.3013072,3.382289417,3.032397408,1011
Jul-11-2019 00:27:30,85.104,19.19,32.6957833,-117.1522883,1.495419845,130.6974026,3.98488121,3.732181425,1011
Jul-11-2019 00:27:45,84.944,19.07,32.69578,-117.1522866,13.39575325,143.4800911,4.198704104,3.771058315,1011
Jul-11-2019 00:28:00,84.864,19.01,32.69578,-117.152285,2.09702553,139.9907781,4.393088553,1.671706263,1011
Jul-11-2019 00:28:15,84.784,18.97,32.6957766,-117.152285,17.99660435,170.2486792,4.082073434,3.926565875,1011
Jul-11-2019 00:28:30,84.784,18.91,32.6957833,-117.15229,19.29721854,159.1275684,4.082073434,4.023758099,1011
Jul-11-2019 00:28:45,84.704,18.96,32.6957933,-117.152295,13.0978152,143.4743615,4.587473002,3.440604752,1011
Jul-11-2019 00:29:00,84.704,18.96,32.69579,-117.152295,16.79912255,143.8697024,4.393088553,4.159827214,1011
Jul-11-2019 00:29:15,84.704,18.95,32.6957816,-117.1522933,9.998113525,148.7914098,5.598272138,4.898488121,1011
Jul-11-2019 00:29:30,84.704,18.96,32.6957733,-117.1522883,13.79682371,151.6390101,5.09287257,3.421166307,1011
Jul-11-2019 00:29:45,84.704,18.93,32.6957716,-117.1522833,13.59628848,153.2432919,4.295896328,4.159827214,1011
Jul-11-2019 00:30:00,84.704,18.88,32.6957733,-117.1522816,15.19484073,149.2325873,3.887688985,3.537796976,1011
Jul-11-2019 00:30:15,84.704,18.85,32.6957833,-117.1522933,12.19827146,149.2440465,4.082073434,3.110151188,1011
Jul-11-2019 00:30:30,84.704,18.83,32.6958,-117.1522966,12.49620951,158.5259628,3.382289417,2.52699784,1011
Jul-11-2019 00:30:45,84.704,18.88,32.6958016,-117.152305,5.597797658,148.4705535,3.187904968,2.293736501,1011
Jul-11-2019 00:31:00,84.704,18.95,32.6957916,-117.1523016,14.29529699,144.7176799,2.48812095,2.157667387,1011
Jul-11-2019 00:31:15,84.704,19.03,32.695785,-117.1522933,16.79912255,134.1924452,2.896328294,3.187904968,1011
Jul-11-2019 00:31:30,84.704,19.09,32.6957833,-117.1522866,12.59934191,157.7467402,5.190064795,3.771058315,1011
Jul-11-2019 00:31:45,84.704,18.96,32.6957733,-117.152295,11.19559532,143.1363164,5.384449244,4.548596112,1011
Jul-11-2019 00:32:00,84.62,18.96,32.6957766,-117.1523033,4.69825392,140.6496795,5.889848812,4.393088553,1011
Jul-11-2019 00:32:15,84.54,18.95,32.6957816,-117.1522983,6.09627094,138.3807667,5.09287257,3.537796976,1011
Jul-11-2019 00:32:30,84.54,18.97,32.6957816,-117.1522966,14.69636745,160.6229883,4.587473002,2.954643629,1011
Jul-11-2019 00:32:45,84.54,18.93,32.695785,-117.1522983,29.19792924,168.0084143,4.898488121,3.926565875,1011
Jul-11-2019 00:33:00,84.62,18.94,32.6957783,-117.1523016,10.79452486,139.9735894,5.09287257,4.995680346,1011
Jul-11-2019 00:33:15,84.54,19.06,32.6957766,-117.1522883,3.397639725,140.0136964,5.598272138,3.673866091,1011
Jul-11-2019 00:33:30,84.46,19.05,32.6957783,-117.15228,2.899166443,135.538896,5.287257019,2.079913607,1011
Jul-11-2019 00:33:45,84.46,18.99,32.6957816,-117.152275,16.59858732,146.8949195,4.898488121,2.954643629,1011
Jul-11-2019 00:34:00,84.46,19,32.69578,-117.1522733,18.49507763,137.8994821,3.596112311,3.051835853,1011
Jul-11-2019 00:34:15,84.62,19.01,32.6957733,-117.1522766,17.39499866,152.7849256,4.393088553,5.01511879,1011
Jul-11-2019 00:34:30,84.62,19,32.6957683,-117.1522783,14.59896462,139.6011668,4.781857451,3.654427646,1011
Jul-11-2019 00:34:45,84.54,18.98,32.6957616,-117.1522616,20.79836796,158.3712642,4.684665227,4.956803456,1011
Jul-11-2019 00:35:00,84.46,18.91,32.6957616,-117.1522616,17.69866629,148.4189873,4.898488121,4.529157667,1011
Jul-11-2019 00:35:15,84.46,18.86,32.6957666,-117.152275,17.99660435,154.612661,5.09287257,4.704103672,1011
Jul-11-2019 00:35:30,84.38,18.83,32.6957616,-117.1522783,16.79912255,155.0538385,5.09287257,4.568034557,1011
Jul-11-2019 00:35:45,84.38,18.85,32.69577,-117.15228,18.2945424,150.5274719,5.09287257,4.490280778,1011
Jul-11-2019 00:36:00,84.46,18.88,32.695765,-117.1522966,11.69979818,144.8838377,5.190064795,3.654427646,1011
Jul-11-2019 00:36:15,84.46,18.97,32.69576,-117.152305,17.49813106,157.7180923,4.684665227,4.665226782,1011
Jul-11-2019 00:36:30,84.54,18.97,32.695755,-117.1522983,22.19638498,140.1454767,2.993520518,2.52699784,1011
Jul-11-2019 00:36:45,84.54,18.92,32.6957516,-117.1523,28.1952531,166.4327803,3.693304536,4.393088553,1011
Jul-11-2019 00:37:00,84.62,18.85,32.6957533,-117.1523066,35.19679735,170.523699,3.498920086,3.634989201,1011
Jul-11-2019 00:37:15,84.704,18.89,32.6957583,-117.1523133,22.39692021,158.5145036,3.693304536,3.86825054,1011
Jul-11-2019 00:37:30,84.704,18.89,32.695765,-117.1523266,23.19906112,156.2856978,4.198704104,3.848812095,1011
Jul-11-2019 00:37:45,84.704,18.98,32.6957716,-117.1523283,14.19789416,143.6519784,4.393088553,4.470842333,1011
Jul-11-2019 00:38:00,84.704,19.03,32.6957833,-117.1523166,9.894981122,140.1970429,4.781857451,3.94600432,1011
Jul-11-2019 00:38:15,84.54,19.05,32.695795,-117.1523016,4.497718692,140.4949809,5.190064795,3.887688985,1011
Jul-11-2019 00:38:30,84.54,19.05,32.69579,-117.1522983,10.49658681,140.019426,4.295896328,3.168466523,1011
Jul-11-2019 00:38:45,84.54,19.05,32.6958016,-117.1522816,10.09551635,139.9850485,3.79049676,2.157667387,1011
Jul-11-2019 00:39:00,84.54,19.05,32.6958183,-117.1522633,13.0978152,139.9621302,2.896328294,1.963282937,1011
Jul-11-2019 00:39:15,84.54,18.99,32.6958083,-117.15227,22.39692021,138.8677808,2.390928726,2.332613391,1011
Jul-11-2019 00:39:30,84.62,18.98,32.6957933,-117.1522816,24.9981486,141.6065191,2.196544276,1.652267819,1011
Jul-11-2019 00:39:45,84.704,18.99,32.6957733,-117.152295,30.09747298,158.8926557,2.896328294,2.157667387,1011
Jul-11-2019 00:40:00,84.784,18.96,32.6957633,-117.1522933,19.09668331,141.4976571,2.390928726,2.041036717,1011
Jul-11-2019 00:40:15,84.784,18.98,32.695765,-117.15229,25.99509517,165.0863295,2.896328294,2.410367171,1011
Jul-11-2019 00:40:30,84.784,18.9,32.69577,-117.1522866,31.39808717,157.8097655,2.896328294,2.44924406,1011
Jul-11-2019 00:40:45,84.784,18.88,32.6957766,-117.1522766,31.19755194,151.1863734,2.896328294,2.585313175,1011
Jul-11-2019 00:41:00,84.704,18.95,32.6957816,-117.15227,26.79723608,139.6756513,2.099352052,1.807775378,1011
Jul-11-2019 00:41:15,84.704,19.01,32.6957816,-117.15229,26.19563039,163.7685266,1.885529158,1.943844492,1011
Jul-11-2019 00:41:30,84.704,18.94,32.695785,-117.15228,32.39503374,151.8681932,2.585313175,2.332613391,1011
Jul-11-2019 00:41:45,84.704,18.9,32.695785,-117.1522883,33.19717465,149.8112747,2.799136069,2.118790497,1011
Jul-11-2019 00:42:00,84.62,18.93,32.6957866,-117.1522933,30.39541103,152.0343509,2.390928726,2.060475162,1011
Jul-11-2019 00:42:15,84.62,18.98,32.6958,-117.1523083,25.39921906,143.697815,2.48812095,1.768898488,1011
Jul-11-2019 00:42:30,84.62,19.03,32.6958016,-117.1523183,31.19755194,169.3605947,2.6825054,2.410367171,1011
Jul-11-2019 00:42:45,84.704,19,32.695795,-117.15232,29.19792924,172.912933,3.498920086,3.149028078,1011
Jul-11-2019 00:43:00,84.62,18.99,32.6957983,-117.1523066,23.19906112,148.218452,3.382289417,2.002159827,1011
Jul-11-2019 00:43:15,84.54,18.96,32.69579,-117.152305,28.39578833,160.5485038,4.198704104,3.809935205,1011
Jul-11-2019 00:43:30,84.46,18.9,32.69579,-117.1522933,24.29914009,153.0771341,3.887688985,3.809935205,1011
Jul-11-2019 00:43:45,84.3,18.89,32.6957683,-117.15231,19.79569182,146.6198998,3.498920086,3.304535637,1011
Jul-11-2019 00:44:00,84.3,18.94,32.6957566,-117.15232,20.19676228,150.0633761,3.285097192,2.779697624,1011
Jul-11-2019 00:44:15,84.3,19.03,32.695755,-117.15232,22.79799067,154.9908132,2.896328294,2.099352052,1011
Jul-11-2019 00:44:30,84.38,19,32.69575,-117.1523266,18.3976748,164.169597,3.693304536,3.596112311,1011
Jul-11-2019 00:44:45,84.3,19,32.6957583,-117.1523216,17.89920152,139.4464682,3.285097192,3.323974082,1011
Jul-11-2019 00:45:00,84.3,19.04,32.6957716,-117.1523083,15.29797313,147.7314379,4.198704104,3.848812095,1011
Jul-11-2019 00:45:15,84.3,18.97,32.6957766,-117.1523016,22.59745544,144.5056855,3.887688985,3.421166307,1011
Jul-11-2019 00:45:30,84.22,19.08,32.695785,-117.1522933,16.79912255,139.9048344,3.498920086,2.701943844,1011
Jul-11-2019 00:45:45,84.22,19.07,32.6957866,-117.1522883,22.29951739,141.6122486,3.187904968,2.546436285,1011
Jul-11-2019 00:46:00,84.22,19.11,32.6957866,-117.1522883,10.09551635,139.7501358,2.6825054,0.933045356,1011
Jul-11-2019 00:46:15,84.3,19.18,32.6958016,-117.15229,7.797955592,151.8338157,2.799136069,1.535637149,1011
Jul-11-2019 00:46:30,84.38,19.19,32.695805,-117.1522833,15.69904359,132.8574535,2.585313175,2.429805616,1011
Jul-11-2019 00:46:45,84.38,19.22,32.6958016,-117.1522616,16.49545492,121.9597963,1.788336933,1.127429806,1011
Jul-11-2019 00:47:00,84.38,19.11,32.6958083,-117.15225,25.19868383,154.9335174,2.6825054,2.779697624,1011
Jul-11-2019 00:47:15,84.46,19.06,32.6958083,-117.152245,33.29457748,172.3170569,3.285097192,2.624190065,1011
Jul-11-2019 00:47:30,84.46,19.09,32.6958116,-117.15224,40.69719219,180.3613843,3.187904968,2.721382289,1011
Jul-11-2019 00:47:45,84.54,18.99,32.6958066,-117.1522383,28.1952531,150.2123451,3.090712743,2.099352052,1011
Jul-11-2019 00:48:00,84.46,18.91,32.6957966,-117.152245,34.8988593,168.2032199,3.382289417,2.56587473,1011
Jul-11-2019 00:48:15,84.38,19.02,32.695795,-117.1522366,20.39729751,142.81546,3.090712743,2.585313175,1011
Jul-11-2019 00:48:30,84.3,19.04,32.695765,-117.152265,34.8988593,167.2177325,3.090712743,2.60475162,1011
Jul-11-2019 00:48:45,84.22,18.99,32.695745,-117.1522833,29.89693775,152.8422214,2.896328294,2.701943844,1011
Jul-11-2019 00:49:00,84.14,18.99,32.69576,-117.1522716,29.99434058,151.2837762,3.382289417,3.149028078,1011
Jul-11-2019 00:49:15,84.06,18.96,32.69577,-117.1522666,24.8950162,158.0274895,3.090712743,2.779697624,1011
Jul-11-2019 00:49:30,84.06,19,32.69578,-117.15226,26.99777131,158.8525487,2.993520518,2.624190065,1011
Jul-11-2019 00:49:45,84.14,19.09,32.6957933,-117.1522483,20.49470033,141.0679387,2.585313175,2.468682505,1011
Jul-11-2019 00:50:00,83.98,19.19,32.695775,-117.1522616,2.394963584,135.1550143,3.187904968,3.421166307,1011
Jul-11-2019 00:50:15,83.9,19.2,32.6957633,-117.1522616,5.299859605,140.7413528,3.090712743,2.390928726,1011
Jul-11-2019 00:50:30,83.816,19.17,32.6957483,-117.1522733,10.39918398,139.9907781,3.187904968,2.371490281,1011
Jul-11-2019 00:50:45,83.816,19.2,32.6957466,-117.1522716,7.694823189,140.0480739,3.187904968,2.429805616,1011
Jul-11-2019 00:51:00,83.816,19.23,32.6957516,-117.15228,2.595498812,140.2657978,3.187904968,1.127429806,1011
Jul-11-2019 00:51:15,83.816,19.25,32.6957866,-117.1522566,357.98976,139.3146879,3.596112311,1.982721382,1011
Jul-11-2019 00:51:30,83.816,19.28,32.69579,-117.15226,4.297183463,131.1385801,3.382289417,1.244060475,1011
Jul-11-2019 00:51:45,83.9,19.25,32.695775,-117.1522766,359.8919799,125.6038078,3.090712743,2.818574514,1011
Jul-11-2019 00:52:00,83.9,19.21,32.6957666,-117.1522916,4.595121517,110.0136262,2.293736501,0.933045356,1011
Jul-11-2019 00:52:15,83.98,19.26,32.6957566,-117.15231,3.397639725,146.780328,1.982721382,1.671706263,1011
Jul-11-2019 00:52:30,83.98,19.3,32.6957516,-117.1523116,359.3935066,128.8582081,2.196544276,2.293736501,1011
Jul-11-2019 00:52:45,84.06,19.3,32.695745,-117.1523066,0,124.5037289,2.293736501,2.021598272,1011
Jul-11-2019 00:53:00,84.14,19.31,32.6957416,-117.1522983,5.895735712,148.4247168,2.390928726,1.205183585,1011
Jul-11-2019 00:53:15,84.14,19.39,32.6957483,-117.152295,0.097402825,121.5472667,1.982721382,1.671706263,1011
Jul-11-2019 00:53:30,84.22,19.37,32.6957566,-117.1522983,354.2884526,57.37026403,1.282937365,0.680345572,1011
Jul-11-2019 00:53:45,84.22,19.33,32.69575,-117.1523033,342.4912516,96.96164767,2.099352052,2.429805616,1011